Stations météo

réclame
Mon MeteoGroup
Altnaharra, Grande-Bretagne (3044): Température de l'air & dewpoint: 10.07.2019 11:00:00 - 16.07.2019 11:00:00 (BST)Altnaharra, Grande-Bretagne (3044): Température de l'air -20cm & Température de l'air -100cm: 10.07.2019 11:00:00 - 16.07.2019 11:00:00 (BST)Altnaharra, Grande-Bretagne (3044): Vitesse du vent: 10.07.2019 11:00:00 - 16.07.2019 11:00:00 (BST)Altnaharra, Grande-Bretagne (3044): Direction du vent: 10.07.2019 11:00:00 - 16.07.2019 11:00:00 (BST)Altnaharra, Grande-Bretagne (3044): reduced air pressure: 10.07.2019 11:00:00 - 16.07.2019 11:00:00 (BST)Altnaharra, Grande-Bretagne (3044): visibility: 10.07.2019 11:00:00 - 16.07.2019 11:00:00 (BST)Altnaharra, Grande-Bretagne (3044): Ensoleillement: 10.07.2019 11:00:00 - 16.07.2019 11:00:00 (BST)Altnaharra, Grande-Bretagne (3044): Quantités de précipitations: 10.07.2019 11:00:00 - 16.07.2019 11:00:00 (BST)
Date & Time tt [°C] td [°C] tt -20cm [°C] tt -100cm [°C] ff [km/h] ff [knt] dd ppp [hPa] vv [km] sd [min] rr [mm]
16.07.2019 11:00:00 - - - - - - - - - - -
16.07.2019 10:00:00 - - - - - - - - - - -
16.07.2019 09:00:00 - - - - - - - - - - -
16.07.2019 08:00:00 - - - - - - - - - - -
16.07.2019 07:00:00 - - - - - - - - - - -
16.07.2019 06:00:00 - - - - - - - - - - -
16.07.2019 05:00:00 - - - - - - - - - - -
16.07.2019 04:00:00 - - - - - - - - - - -
16.07.2019 03:00:00 - - - - - - - - - - -
16.07.2019 02:00:00 - - - - - - - - - - -
16.07.2019 01:00:00 - - - - - - - - - - -
16.07.2019 00:00:00 - - - - - - - - - - -
15.07.2019 23:00:00 - - - - - - - - - - -
15.07.2019 22:00:00 - - - - - - - - - - -
15.07.2019 21:00:00 - - - - - - - - - - -
15.07.2019 20:00:00 - - - - - - - - - - -
15.07.2019 19:00:00 - - - - - - - - - - -
15.07.2019 18:00:00 - - - - - - - - - - -
15.07.2019 17:00:00 - - - - - - - - - - -
15.07.2019 16:00:00 - - - - - - - - - - -
15.07.2019 15:00:00 - - - - - - - - - - -
15.07.2019 14:00:00 - - - - - - - - - - -
15.07.2019 13:00:00 - - - - - - - - - - -
15.07.2019 12:00:00 - - - - - - - - - - -
15.07.2019 11:00:00 - - - - - - - - - - -
15.07.2019 10:00:00 - - - - - - - - - - -
15.07.2019 09:00:00 - - - - - - - - - - -
15.07.2019 08:00:00 - - - - - - - - - - -
15.07.2019 07:00:00 - - - - - - - - - - -
15.07.2019 06:00:00 - - - - - - - - - - -
15.07.2019 05:00:00 - - - - - - - - - - -
15.07.2019 04:00:00 - - - - - - - - - - -
15.07.2019 03:00:00 - - - - - - - - - - -
15.07.2019 02:00:00 - - - - - - - - - - -
15.07.2019 01:00:00 - - - - - - - - - - -
15.07.2019 00:00:00 - - - - - - - - - - -
14.07.2019 23:00:00 - - - - - - - - - - -
14.07.2019 22:00:00 - - - - - - - - - - -
14.07.2019 21:00:00 - - - - - - - - - - -
14.07.2019 20:00:00 - - - - - - - - - - -
14.07.2019 19:00:00 - - - - - - - - - - -
14.07.2019 18:00:00 - - - - - - - - - - -
14.07.2019 17:00:00 - - - - - - - - - - -
14.07.2019 16:00:00 - - - - - - - - - - -
14.07.2019 15:00:00 - - - - - - - - - - -
14.07.2019 14:00:00 - - - - - - - - - - -
14.07.2019 13:00:00 - - - - - - - - - - -
14.07.2019 12:00:00 - - - - - - - - - - -
14.07.2019 11:00:00 - - - - - - - - - - -
14.07.2019 10:00:00 - - - - - - - - - - -
14.07.2019 09:00:00 - - - - - - - - - - -
14.07.2019 08:00:00 - - - - - - - - - - -
14.07.2019 07:00:00 - - - - - - - - - - -
14.07.2019 06:00:00 - - - - - - - - - - -
14.07.2019 05:00:00 - - - - - - - - - - -
14.07.2019 04:00:00 - - - - - - - - - - -
14.07.2019 03:00:00 - - - - - - - - - - -
14.07.2019 02:00:00 - - - - - - - - - - -
14.07.2019 01:00:00 - - - - - - - - - - -
14.07.2019 00:00:00 - - - - - - - - - - -
13.07.2019 23:00:00 - - - - - - - - - - -
13.07.2019 22:00:00 - - - - - - - - - - -
13.07.2019 21:00:00 - - - - - - - - - - -
13.07.2019 20:00:00 - - - - - - - - - - -
13.07.2019 19:00:00 - - - - - - - - - - -
13.07.2019 18:00:00 - - - - - - - - - - -
13.07.2019 17:00:00 - - - - - - - - - - -
13.07.2019 16:00:00 - - - - - - - - - - -
13.07.2019 15:00:00 - - - - - - - - - - -
13.07.2019 14:00:00 - - - - - - - - - - -
13.07.2019 13:00:00 - - - - - - - - - - -
13.07.2019 12:00:00 - - - - - - - - - - -
13.07.2019 11:00:00 - - - - - - - - - - -
13.07.2019 10:00:00 - - - - - - - - - - -
13.07.2019 09:00:00 - - - - - - - - - - -
13.07.2019 08:00:00 - - - - - - - - - - -
13.07.2019 07:00:00 - - - - - - - - - - -
13.07.2019 06:00:00 - - - - - - - - - - -
13.07.2019 05:00:00 - - - - - - - - - - -
13.07.2019 04:00:00 - - - - - - - - - - -
13.07.2019 03:00:00 - - - - - - - - - - -
13.07.2019 02:00:00 - - - - - - - - - - -
13.07.2019 01:00:00 - - - - - - - - - - -
13.07.2019 00:00:00 - - - - - - - - - - -
12.07.2019 23:00:00 - - - - - - - - - - -
12.07.2019 22:00:00 - - - - - - - - - - -
12.07.2019 21:00:00 - - - - - - - - - - -
12.07.2019 20:00:00 - - - - - - - - - - -
12.07.2019 19:00:00 - - - - - - - - - - -
12.07.2019 18:00:00 - - - - - - - - - - -
12.07.2019 17:00:00 - - - - - - - - - - -
12.07.2019 16:00:00 - - - - - - - - - - -
12.07.2019 15:00:00 - - - - - - - - - - -
12.07.2019 14:00:00 - - - - - - - - - - -
12.07.2019 13:00:00 - - - - - - - - - - -
12.07.2019 12:00:00 - - - - - - - - - - -
12.07.2019 11:00:00 - - - - - - - - - - -
12.07.2019 10:00:00 - - - - - - - - - - -
12.07.2019 09:00:00 - - - - - - - - - - -
12.07.2019 08:00:00 - - - - - - - - - - -
12.07.2019 07:00:00 - - - - - - - - - - -
12.07.2019 06:00:00 - - - - - - - - - - -
12.07.2019 05:00:00 - - - - - - - - - - -
12.07.2019 04:00:00 - - - - - - - - - - -
12.07.2019 03:00:00 - - - - - - - - - - -
12.07.2019 02:00:00 - - - - - - - - - - -
12.07.2019 01:00:00 - - - - - - - - - - -
12.07.2019 00:00:00 - - - - - - - - - - -
11.07.2019 23:00:00 - - - - - - - - - - -
11.07.2019 22:00:00 - - - - - - - - - - -
11.07.2019 21:00:00 - - - - - - - - - - -
11.07.2019 20:00:00 - - - - - - - - - - -
11.07.2019 19:00:00 - - - - - - - - - - -
11.07.2019 18:00:00 - - - - - - - - - - -
11.07.2019 17:00:00 - - - - - - - - - - -
11.07.2019 16:00:00 - - - - - - - - - - -
11.07.2019 15:00:00 18,1 15,3 - - 5 3 W 1007,5 35 0 0,4
11.07.2019 14:00:00 17,0 15,0 - - 8 4 W 1007,6 28 6 1,0
11.07.2019 13:00:00 20,4 15,0 - - 8 4 ENE 1007,1 30 24 0,0
11.07.2019 12:00:00 18,9 15,3 - - 8 4 NNE 1007,3 50 0 0,2
11.07.2019 11:00:00 17,9 14,8 - - 8 4 ENE 1008,0 13 0 0,0
11.07.2019 10:00:00 17,0 15,1 14,4 12,0 11 6 NE 1008,3 50 0 0,0
11.07.2019 09:00:00 16,1 15,4 - - 9 5 NE 1008,1 45 0 0,6
11.07.2019 08:00:00 15,6 15,4 - - 9 5 NE 1008,1 19 0 0,2
11.07.2019 07:00:00 14,9 14,8 - - 5 3 W 1008,3 40 0 0,0
11.07.2019 06:00:00 14,6 14,6 - - 5 3 WSW 1008,5 0,5 0 0,0
11.07.2019 05:00:00 14,6 14,5 - - 2 1 N 1008,6 3,6 0 0,0
11.07.2019 04:00:00 14,4 14,2 - - 2 1 W 1008,9 2,9 0 0,0
11.07.2019 03:00:00 14,3 14,0 - - 2 1 NNW 1009,3 20 0 0,2
11.07.2019 02:00:00 15,1 14,9 - - 4 2 S 1009,5 12 0 0,8
11.07.2019 01:00:00 15,3 15,1 - - 4 2 NE 1009,9 40 - 0,6
11.07.2019 00:00:00 15,3 15,0 - - 0 0 N 1010,4 7 0 0,2
10.07.2019 23:00:00 15,5 15,2 - - 2 1 SE 1010,4 40 0 0,2
10.07.2019 22:00:00 15,7 15,3 - - 5 3 NNW 1010,4 10 0 3,2
10.07.2019 21:00:00 15,8 15,4 - - 5 3 W 1010,7 16 0 3,8
10.07.2019 20:00:00 16,2 15,8 - - 4 2 WNW 1011,2 8 0 0,8
10.07.2019 19:00:00 16,2 15,8 - - 8 4 W 1011,4 12 0 4,2
10.07.2019 18:00:00 16,6 16,1 - - 5 3 WNW 1011,6 22 0 5,2
10.07.2019 17:00:00 16,2 15,5 - - 9 5 NW 1012,0 2,4 0 7,4
10.07.2019 16:00:00 17,4 16,4 - - 5 3 E 1012,0 4,5 0 2,2
10.07.2019 15:00:00 18,1 16,7 - - 13 7 E 1012,1 30 0 1,6
10.07.2019 14:00:00 18,0 16,4 - - 13 7 NW 1012,3 2,7 12 1,0
10.07.2019 13:00:00 20,8 14,6 - - 4 2 SE 1012,2 45 42 0,0
10.07.2019 12:00:00 20,1 15,5 - - 11 6 SE 1012,7 45 60 0,0
10.07.2019 11:00:00 19,0 16,4 - - 8 4 SSE 1013,0 35 6 -

tt = Température de l'air
td = dewpoint
tt -20cm = Température de l'air -20cm
tt -100cm = Température de l'air -100cm
ff = Vitesse du vent
dd = Direction du vent
ppp = reduced air pressure
vv = visibility
sd = Ensoleillement
rr = Quantités de précipitations

stations d'obs. à proximité